| time (UTC) | temp F | wind direction | speed knots | gust knots | rain 1hr in | rain 24hr in | rain mn in | humidity % | barometer mb |
| 20260510051638 | 65 | 93 | 0.0 | 0.0 | 0.00 | 0.00 | 0.00 | 97 | 1024.9 |
| 20260510051135 | 66 | 102 | 1.7 | 1.7 | 0.00 | 0.00 | 0.00 | 96 | 1024.8 |
| 20260510050632 | 65 | 92 | 0.9 | 1.7 | 0.00 | 0.00 | 0.00 | 96 | 1024.8 |
| 20260510050130 | 65 | 99 | 0.0 | 0.0 | 0.00 | 0.00 | 0.00 | 96 | 1024.7 |
| 20260510045626 | 65 | 102 | 0.9 | 1.7 | 0.00 | 0.00 | 0.00 | 96 | 1024.8 |
| 20260510045123 | 66 | 83 | 1.7 | 1.7 | 0.00 | 0.00 | 0.00 | 96 | 1024.7 |
| 20260510044619 | 66 | 102 | 0.0 | 0.0 | 0.00 | 0.00 | 0.00 | 95 | 1024.9 |
| 20260510044117 | 66 | 101 | 0.0 | 1.7 | 0.00 | 0.00 | 0.00 | 95 | 1024.7 |
| 20260510043612 | 66 | 102 | 0.0 | 0.0 | 0.00 | 0.00 | 0.00 | 95 | 1024.7 |
| 20260510043108 | 66 | 108 | 0.0 | 1.7 | 0.00 | 0.00 | 0.00 | 95 | 1024.9 |
| 20260510042607 | 66 | 108 | 0.0 | 0.0 | 0.00 | 0.00 | 0.00 | 94 | 1024.8 |
| 20260510042102 | 66 | 108 | 0.0 | 0.0 | 0.00 | 0.00 | 0.00 | 94 | 1024.7 |
| 20260510041600 | 66 | 108 | 0.0 | 0.0 | 0.00 | 0.00 | 0.00 | 93 | 1024.7 |
| 20260510041057 | 67 | 108 | 0.0 | 0.0 | 0.00 | 0.00 | 0.00 | 93 | 1024.6 |
| 20260510040554 | 67 | 108 | 0.0 | 0.0 | 0.00 | 0.00 | 0.00 | 92 | 1024.7 |
| 20260510040049 | 68 | 116 | 0.0 | 1.7 | 0.00 | 0.00 | 0.00 | 92 | 1024.8 |
| 20260510035546 | 68 | 113 | 1.7 | 1.7 | 0.00 | 0.00 | 0.00 | 91 | 1024.4 |
| 20260510035045 | 68 | 130 | 0.9 | 1.7 | 0.00 | 0.00 | 0.00 | 91 | 1024.7 |
| 20260510034544 | 68 | 129 | 0.0 | 0.0 | 0.00 | 0.00 | 0.00 | 90 | 1024.6 |
| 20260510034041 | 68 | 117 | 0.0 | 1.7 | 0.00 | 0.00 | 0.00 | 90 | 1024.6 |
| 20260510033536 | 68 | 118 | 1.7 | 4.3 | 0.00 | 0.00 | 0.00 | 89 | 1024.6 |
| 20260510033035 | 68 | 120 | 0.0 | 1.7 | 0.00 | 0.00 | 0.00 | 89 | 1024.4 |
| 20260510032531 | 68 | 116 | 1.7 | 1.7 | 0.00 | 0.00 | 0.00 | 89 | 1024.6 |
| 20260510032026 | 69 | 124 | 0.9 | 1.7 | 0.00 | 0.00 | 0.00 | 88 | 1024.6 |
| 20260510031521 | 69 | 126 | 0.9 | 1.7 | 0.00 | 0.00 | 0.00 | 88 | 1024.1 |
| 20260510031018 | 69 | 132 | 0.9 | 1.7 | 0.00 | 0.00 | 0.00 | 87 | 1024.2 |
| 20260510030513 | 69 | 127 | 0.9 | 1.7 | 0.00 | 0.00 | 0.00 | 87 | 1024.4 |
| 20260510030011 | 69 | 124 | 0.0 | 1.7 | 0.00 | 0.00 | 0.00 | 87 | 1024.1 |
| 20260510025508 | 69 | 131 | 0.0 | 1.7 | 0.00 | 0.00 | 0.00 | 86 | 1024.1 |
| 20260510025006 | 69 | 124 | 0.0 | 1.7 | 0.00 | 0.00 | 0.00 | 86 | 1024.0 |
| 20260510024502 | 69 | 112 | 0.0 | 0.0 | 0.00 | 0.00 | 0.00 | 85 | 1023.8 |
| 20260510023958 | 70 | 101 | 0.9 | 1.7 | 0.00 | 0.00 | 0.00 | 85 | 1023.8 |
| 20260510023454 | 70 | 128 | 1.7 | 4.3 | 0.00 | 0.00 | 0.00 | 85 | 1023.9 |
| 20260510022951 | 70 | 121 | 2.6 | 4.3 | 0.00 | 0.00 | 0.00 | 84 | 1023.8 |
| 20260510022450 | 70 | 164 | 0.9 | 1.7 | 0.00 | 0.00 | 0.00 | 84 | 1023.7 |
| 20260510021949 | 71 | 128 | 0.0 | 4.3 | 0.00 | 0.00 | 0.00 | 84 | 1023.6 |
| 20260510021448 | 71 | 124 | 0.0 | 0.0 | 0.00 | 0.00 | 0.00 | 84 | 1023.6 |
| 20260510020945 | 71 | 135 | 1.7 | 4.3 | 0.00 | 0.00 | 0.00 | 83 | 1023.6 |
| 20260510020444 | 71 | 120 | 1.7 | 1.7 | 0.00 | 0.00 | 0.00 | 83 | 1023.3 |
| 20260510015940 | 71 | 126 | 1.7 | 4.3 | 0.00 | 0.00 | 0.00 | 83 | 1023.3 |
| 20260510015436 | 71 | 132 | 1.7 | 4.3 | 0.00 | 0.00 | 0.00 | 83 | 1023.3 |
| 20260510014931 | 71 | 131 | 0.0 | 1.7 | 0.00 | 0.00 | 0.00 | 82 | 1023.2 |
| 20260510014429 | 72 | 126 | 0.0 | 1.7 | 0.00 | 0.00 | 0.00 | 82 | 1023.1 |
| 20260510013926 | 72 | 108 | 0.0 | 6.1 | 0.00 | 0.00 | 0.00 | 81 | 1022.9 |
| 20260510013420 | 72 | 124 | 2.6 | 4.3 | 0.00 | 0.00 | 0.00 | 81 | 1023.1 |
| 20260510012916 | 73 | 137 | 1.7 | 4.3 | 0.00 | 0.00 | 0.00 | 80 | 1023.0 |
| 20260510012411 | 73 | 133 | 0.9 | 1.7 | 0.00 | 0.00 | 0.00 | 80 | 1023.2 |
| 20260510011906 | 73 | 112 | 3.5 | 6.1 | 0.00 | 0.00 | 0.00 | 80 | 1022.9 |
| 20260510011401 | 73 | 138 | 0.9 | 1.7 | 0.00 | 0.00 | 0.00 | 80 | 1022.9 |
| 20260510010858 | 73 | 137 | 1.7 | 1.7 | 0.00 | 0.00 | 0.00 | 79 | 1022.7 |
| 20260510010355 | 74 | 122 | 0.9 | 7.8 | 0.00 | 0.00 | 0.00 | 78 | 1022.8 |
| 20260510005852 | 74 | 101 | 2.6 | 4.3 | 0.00 | 0.00 | 0.00 | 78 | 1022.7 |
| 20260510005348 | 74 | 126 | 0.0 | 1.7 | 0.00 | 0.00 | 0.00 | 77 | 1022.6 |
| 20260510004846 | 75 | 126 | 1.7 | 4.3 | 0.00 | 0.00 | 0.00 | 76 | 1022.4 |
| 20260510004343 | 75 | 127 | 0.9 | 4.3 | 0.00 | 0.00 | 0.00 | 75 | 1022.5 |
| 20260510003841 | 75 | 120 | 0.0 | 4.3 | 0.00 | 0.00 | 0.00 | 75 | 1022.4 |
| 20260510003338 | 76 | 123 | 1.7 | 4.3 | 0.00 | 0.00 | 0.00 | 75 | 1022.3 |
| 20260510002836 | 76 | 129 | 0.0 | 1.7 | 0.00 | 0.00 | 0.00 | 75 | 1022.4 |
| 20260510002333 | 76 | 119 | 0.0 | 4.3 | 0.00 | 0.00 | 0.00 | 75 | 1022.3 |
| 20260510001830 | 76 | 132 | 0.9 | 1.7 | 0.00 | 0.00 | 0.00 | 74 | 1022.1 |
| 20260510001328 | 77 | 111 | 0.9 | 1.7 | 0.00 | 0.00 | 0.00 | 74 | 1022.1 |
| 20260510000824 | 77 | 89 | 1.7 | 1.7 | 0.00 | 0.00 | 0.00 | 73 | 1022.1 |
| 20260510000322 | 77 | 63 | 1.7 | 4.3 | 0.00 | 0.00 | 0.00 | 73 | 1022.0 |
| 20260509235819 | 77 | 93 | 2.6 | 4.3 | 0.00 | 0.00 | 0.00 | 72 | 1022.2 |
| 20260509235315 | 77 | 67 | 1.7 | 1.7 | 0.00 | 0.00 | 0.00 | 72 | 1021.9 |
| 20260509234811 | 77 | 96 | 0.9 | 4.3 | 0.00 | 0.00 | 0.00 | 72 | 1022.2 |
| 20260509234308 | 78 | 67 | 2.6 | 4.3 | 0.00 | 0.00 | 0.00 | 71 | 1021.8 |
| 20260509233806 | 78 | 92 | 2.6 | 4.3 | 0.00 | 0.00 | 0.00 | 71 | 1021.7 |
| 20260509233303 | 78 | 141 | 0.0 | 7.8 | 0.00 | 0.00 | 0.00 | 72 | 1021.7 |
| 20260509232759 | 78 | 77 | 2.6 | 4.3 | 0.00 | 0.00 | 0.00 | 71 | 1021.5 |
| 20260509232257 | 78 | 75 | 3.5 | 9.6 | 0.00 | 0.00 | 0.00 | 69 | 1021.6 |
| 20260509231753 | 78 | 73 | 0.9 | 1.7 | 0.00 | 0.00 | 0.00 | 69 | 1021.7 |
| 20260509231250 | 78 | 80 | 1.7 | 1.7 | 0.00 | 0.00 | 0.00 | 68 | 1021.8 |
| 20260509230748 | 79 | 118 | 0.9 | 4.3 | 0.00 | 0.00 | 0.00 | 68 | 1021.2 |
| 20260509230244 | 79 | 107 | 1.7 | 4.3 | 0.00 | 0.00 | 0.00 | 67 | 1021.3 |
| 20260509225739 | 80 | 73 | 7.8 | 7.8 | 0.00 | 0.00 | 0.00 | 64 | 1021.5 |
| 20260509225236 | 80 | 93 | 0.0 | 4.3 | 0.00 | 0.00 | 0.00 | 64 | 1021.6 |
| 20260509224731 | 80 | 188 | 0.9 | 4.3 | 0.00 | 0.00 | 0.00 | 64 | 1021.3 |
| 20260509224229 | 81 | 108 | 0.9 | 1.7 | 0.00 | 0.00 | 0.00 | 63 | 1021.3 |
| 20260509223725 | 82 | 148 | 0.9 | 6.1 | 0.00 | 0.00 | 0.00 | 62 | 1021.3 |
| 20260509223223 | 80 | 141 | 0.0 | 0.0 | 0.00 | 0.00 | 0.00 | 60 | 1021.5 |
| 20260509222719 | 81 | 91 | 6.1 | 9.6 | 0.00 | 0.00 | 0.00 | 61 | 1021.3 |
| 20260509222214 | 80 | 135 | 0.9 | 1.7 | 0.00 | 0.00 | 0.00 | 60 | 1021.4 |
| 20260509221711 | 81 | 110 | 0.9 | 1.7 | 0.00 | 0.00 | 0.00 | 59 | 1021.3 |
| 20260509221207 | 82 | 102 | 0.9 | 1.7 | 0.00 | 0.00 | 0.00 | 59 | 1021.4 |
| 20260509220703 | 82 | 134 | 0.9 | 4.3 | 0.00 | 0.00 | 0.00 | 59 | 1021.3 |
| 20260509220159 | 81 | 154 | 1.7 | 6.1 | 0.00 | 0.00 | 0.00 | 62 | 1021.4 |
| 20260509215655 | 81 | 125 | 1.7 | 4.3 | 0.00 | 0.00 | 0.00 | 59 | 1021.1 |
| 20260509215152 | 82 | 115 | 0.9 | 6.1 | 0.00 | 0.00 | 0.00 | 62 | 1021.2 |
| 20260509214649 | 80 | 131 | 0.0 | 6.1 | 0.00 | 0.00 | 0.00 | 60 | 1021.1 |
| 20260509214146 | 80 | 140 | 3.5 | 7.8 | 0.00 | 0.00 | 0.00 | 62 | 1021.4 |
| 20260509213643 | 80 | 112 | 1.7 | 7.8 | 0.00 | 0.00 | 0.00 | 62 | 1021.4 |
| 20260509213138 | 80 | 138 | 1.7 | 6.1 | 0.00 | 0.00 | 0.00 | 61 | 1021.2 |
| 20260509212636 | 81 | 146 | 4.3 | 6.1 | 0.00 | 0.00 | 0.00 | 62 | 1021.4 |
| 20260509212133 | 80 | 151 | 0.0 | 6.1 | 0.00 | 0.00 | 0.00 | 63 | 1021.5 |
| 20260509211629 | 81 | 109 | 0.0 | 6.1 | 0.00 | 0.00 | 0.00 | 61 | 1021.3 |
| 20260509211126 | 80 | 51 | 0.9 | 6.1 | 0.00 | 0.00 | 0.00 | 59 | 1021.5 |
| 20260509210622 | 80 | 126 | 1.7 | 1.7 | 0.00 | 0.00 | 0.00 | 61 | 1021.5 |
| 20260509210120 | 79 | 24 | 2.6 | 4.3 | 0.00 | 0.00 | 0.00 | 62 | 1021.7 |
| 20260509205614 | 78 | 72 | 7.0 | 7.8 | 0.00 | 0.00 | 0.00 | 63 | 1021.7 |
| 20260509205109 | 77 | 59 | 2.6 | 4.3 | 0.00 | 0.00 | 0.00 | 68 | 1021.7 |
| 20260509204605 | 78 | 72 | 1.7 | 4.3 | 0.00 | 0.00 | 0.00 | 65 | 1021.7 |
| 20260509204102 | 78 | 70 | 3.5 | 7.8 | 0.00 | 0.00 | 0.00 | 65 | 1021.8 |
| 20260509203558 | 79 | 78 | 5.2 | 6.1 | 0.00 | 0.00 | 0.00 | 65 | 1021.7 |
| 20260509203057 | 80 | 91 | 6.1 | 9.6 | 0.00 | 0.00 | 0.00 | 63 | 1021.8 |
| 20260509202556 | 79 | 119 | 0.9 | 4.3 | 0.00 | 0.00 | 0.00 | 61 | 1021.9 |
| 20260509202052 | 77 | 100 | 0.0 | 0.0 | 0.00 | 0.00 | 0.00 | 64 | 1022.3 |
| 20260509201547 | 77 | 64 | 4.3 | 6.1 | 0.00 | 0.00 | 0.00 | 66 | 1022.0 |
| 20260509201045 | 78 | 92 | 4.3 | 7.8 | 0.00 | 0.00 | 0.00 | 66 | 1022.1 |
| 20260509200544 | 79 | 86 | 2.6 | 6.1 | 0.00 | 0.00 | 0.00 | 64 | 1022.1 |
| 20260509200042 | 80 | 70 | 4.3 | 6.1 | 0.00 | 0.00 | 0.00 | 62 | 1022.2 |
| 20260509195537 | 81 | 65 | 1.7 | 1.7 | 0.00 | 0.00 | 0.00 | 61 | 1022.2 |
| 20260509195037 | 80 | 126 | 1.7 | 6.1 | 0.00 | 0.00 | 0.00 | 63 | 1022.1 |
| 20260509194532 | 80 | 144 | 1.7 | 9.6 | 0.00 | 0.00 | 0.00 | 61 | 1022.5 |
| 20260509194030 | 80 | 173 | 4.3 | 7.8 | 0.00 | 0.00 | 0.00 | 61 | 1022.5 |
| 20260509193530 | 80 | 131 | 2.6 | 6.1 | 0.00 | 0.00 | 0.00 | 64 | 1022.7 |
| 20260509193027 | 77 | 128 | 0.9 | 1.7 | 0.00 | 0.00 | 0.00 | 64 | 1022.8 |
| 20260509192524 | 78 | 67 | 4.3 | 7.8 | 0.00 | 0.00 | 0.00 | 64 | 1022.9 |
| 20260509192019 | 79 | 21 | 3.5 | 6.1 | 0.00 | 0.00 | 0.00 | 65 | 1023.0 |
| 20260509191513 | 78 | 133 | 0.0 | 1.7 | 0.00 | 0.00 | 0.00 | 65 | 1022.7 |
| 20260509191009 | 77 | 94 | 0.0 | 0.0 | 0.00 | 0.00 | 0.00 | 70 | 1023.0 |
| 20260509190506 | 78 | 94 | 0.0 | 1.7 | 0.00 | 0.00 | 0.00 | 67 | 1023.0 |
| 20260509190005 | 78 | 99 | 0.0 | 0.0 | 0.00 | 0.00 | 0.00 | 68 | 1022.9 |
| 20260509185501 | 78 | 82 | 1.7 | 6.1 | 0.00 | 0.00 | 0.00 | 66 | 1022.9 |
| 20260509184958 | 78 | 115 | 0.0 | 1.7 | 0.00 | 0.00 | 0.00 | 69 | 1022.7 |
| 20260509184456 | 79 | 84 | 0.9 | 1.7 | 0.00 | 0.00 | 0.00 | 67 | 1022.8 |
| 20260509183953 | 78 | 81 | 0.9 | 6.1 | 0.00 | 0.00 | 0.00 | 64 | 1022.8 |
| 20260509183452 | 78 | 110 | 0.0 | 6.1 | 0.00 | 0.00 | 0.00 | 66 | 1022.7 |
| 20260509182949 | 78 | 80 | 3.5 | 6.1 | 0.00 | 0.00 | 0.00 | 64 | 1022.7 |
| 20260509182445 | 78 | 99 | 0.9 | 4.3 | 0.00 | 0.00 | 0.00 | 64 | 1022.7 |
| 20260509181943 | 78 | 26 | 4.3 | 6.1 | 0.00 | 0.00 | 0.00 | 63 | 1022.6 |
| 20260509181441 | 79 | 63 | 5.2 | 6.1 | 0.00 | 0.00 | 0.00 | 62 | 1022.7 |
| 20260509180938 | 77 | 50 | 4.3 | 9.6 | 0.00 | 0.00 | 0.00 | 66 | 1022.8 |
| 20260509180434 | 77 | 10 | 5.2 | 6.1 | 0.00 | 0.00 | 0.00 | 65 | 1022.8 |
| 20260509175931 | 78 | 76 | 3.5 | 12.2 | 0.00 | 0.00 | 0.00 | 66 | 1022.8 |
| 20260509175427 | 78 | 40 | 4.3 | 7.8 | 0.00 | 0.00 | 0.00 | 64 | 1022.8 |
| 20260509174923 | 79 | 63 | 2.6 | 9.6 | 0.00 | 0.00 | 0.00 | 63 | 1022.9 |
| 20260509174419 | 78 | 71 | 4.3 | 7.8 | 0.00 | 0.00 | 0.00 | 62 | 1022.9 |
| 20260509173916 | 78 | 145 | 0.9 | 6.1 | 0.00 | 0.00 | 0.00 | 64 | 1023.1 |
| 20260509173415 | 79 | 92 | 1.7 | 1.7 | 0.00 | 0.00 | 0.00 | 64 | 1022.9 |
| 20260509172912 | 80 | 97 | 1.7 | 6.1 | 0.00 | 0.00 | 0.00 | 62 | 1023.1 |
| 20260509172409 | 78 | 109 | 0.9 | 4.3 | 0.00 | 0.00 | 0.00 | 63 | 1023.2 |
| 20260509171904 | 79 | 56 | 7.8 | 9.6 | 0.00 | 0.00 | 0.00 | 61 | 1023.4 |
| 20260509171401 | 79 | 126 | 3.5 | 4.3 | 0.00 | 0.00 | 0.00 | 62 | 1023.2 |
| 20260509170857 | 77 | 110 | 0.9 | 6.1 | 0.00 | 0.00 | 0.00 | 64 | 1023.4 |
| 20260509170353 | 78 | 46 | 6.1 | 7.8 | 0.00 | 0.00 | 0.00 | 61 | 1023.4 |
| 20260509165848 | 78 | 83 | 1.7 | 4.3 | 0.00 | 0.00 | 0.00 | 63 | 1023.5 |
| 20260509165343 | 77 | 149 | 0.0 | 1.7 | 0.00 | 0.00 | 0.00 | 64 | 1023.6 |
| 20260509164839 | 78 | 62 | 0.9 | 4.3 | 0.00 | 0.00 | 0.00 | 62 | 1023.5 |
| 20260509164335 | 77 | 347 | 4.3 | 6.1 | 0.00 | 0.00 | 0.00 | 64 | 1023.6 |
| 20260509163831 | 77 | 4 | 5.2 | 6.1 | 0.00 | 0.00 | 0.00 | 64 | 1023.3 |
| 20260509163328 | 77 | 87 | 3.5 | 6.1 | 0.00 | 0.00 | 0.00 | 66 | 1023.3 |
| 20260509162828 | 76 | 83 | 1.7 | 4.3 | 0.00 | 0.00 | 0.00 | 66 | 1023.4 |
| 20260509162326 | 76 | 8 | 4.3 | 6.1 | 0.00 | 0.00 | 0.00 | 65 | 1023.3 |
| 20260509161822 | 76 | 327 | 3.5 | 12.2 | 0.00 | 0.00 | 0.00 | 65 | 1023.1 |
| 20260509161319 | 76 | 87 | 1.7 | 4.3 | 0.00 | 0.00 | 0.00 | 67 | 1023.1 |
| 20260509160814 | 74 | 152 | 1.7 | 7.8 | 0.00 | 0.00 | 0.00 | 72 | 1023.1 |
| 20260509160310 | 75 | 295 | 4.3 | 7.8 | 0.00 | 0.00 | 0.00 | 71 | 1023.1 |
| 20260509155806 | 73 | 74 | 1.7 | 1.7 | 0.00 | 0.00 | 0.00 | 72 | 1023.2 |
| 20260509155306 | 73 | 329 | 7.8 | 9.6 | 0.00 | 0.00 | 0.00 | 75 | 1023.2 |
| 20260509154759 | 74 | 318 | 4.3 | 9.6 | 0.00 | 0.00 | 0.00 | 75 | 1023.2 |
| 20260509154256 | 73 | 46 | 0.9 | 1.7 | 0.00 | 0.00 | 0.00 | 75 | 1023.2 |
| 20260509153753 | 73 | 332 | 5.2 | 7.8 | 0.00 | 0.00 | 0.00 | 77 | 1023.3 |
| 20260509153248 | 72 | 285 | 0.0 | 4.3 | 0.00 | 0.00 | 0.00 | 78 | 1023.3 |
| 20260509152745 | 72 | 99 | 0.0 | 4.3 | 0.00 | 0.00 | 0.00 | 77 | 1023.4 |
| 20260509152242 | 71 | 46 | 1.7 | 4.3 | 0.00 | 0.00 | 0.00 | 78 | 1023.3 |
| 20260509151739 | 71 | 278 | 3.5 | 6.1 | 0.00 | 0.00 | 0.00 | 78 | 1023.2 |
| 20260509151235 | 71 | 314 | 2.6 | 7.8 | 0.00 | 0.00 | 0.00 | 79 | 1023.2 |
| 20260509150734 | 70 | 124 | 1.7 | 1.7 | 0.00 | 0.00 | 0.00 | 80 | 1023.2 |
| 20260509150233 | 70 | 352 | 4.3 | 4.3 | 0.00 | 0.00 | 0.00 | 80 | 1023.4 |
| 20260509145729 | 69 | 338 | 5.2 | 6.1 | 0.00 | 0.00 | 0.00 | 81 | 1023.2 |
| 20260509145228 | 69 | 347 | 3.5 | 6.1 | 0.00 | 0.00 | 0.00 | 81 | 1023.4 |
| 20260509144725 | 68 | 74 | 1.7 | 6.1 | 0.00 | 0.00 | 0.00 | 84 | 1023.3 |
| 20260509144222 | 69 | 329 | 3.5 | 7.8 | 0.00 | 0.00 | 0.00 | 83 | 1023.4 |
| 20260509143719 | 68 | 357 | 3.5 | 4.3 | 0.00 | 0.00 | 0.00 | 83 | 1023.4 |
| 20260509143216 | 68 | 359 | 3.5 | 4.3 | 0.00 | 0.00 | 0.00 | 85 | 1023.5 |
| 20260509142712 | 67 | 0 | 2.6 | 6.1 | 0.00 | 0.00 | 0.00 | 86 | 1023.4 |
| 20260509142209 | 67 | 1 | 4.3 | 7.8 | 0.00 | 0.00 | 0.00 | 87 | 1023.5 |
| 20260509141704 | 67 | 325 | 5.2 | 7.8 | 0.00 | 0.00 | 0.00 | 87 | 1023.6 |
| 20260509141202 | 66 | 282 | 4.3 | 6.1 | 0.00 | 0.00 | 0.00 | 88 | 1023.5 |
| 20260509140658 | 66 | 329 | 5.2 | 7.8 | 0.00 | 0.00 | 0.00 | 88 | 1023.4 |
| 20260509140156 | 66 | 317 | 1.7 | 4.3 | 0.00 | 0.00 | 0.00 | 88 | 1023.6 |
| 20260509135653 | 65 | 274 | 2.6 | 6.1 | 0.00 | 0.00 | 0.00 | 88 | 1023.6 |
| 20260509135151 | 65 | 309 | 2.6 | 6.1 | 0.00 | 0.00 | 0.00 | 89 | 1023.6 |
| 20260509134647 | 65 | 121 | 0.9 | 6.1 | 0.00 | 0.00 | 0.00 | 88 | 1023.6 |
| 20260509134145 | 65 | 28 | 1.7 | 4.3 | 0.00 | 0.00 | 0.00 | 89 | 1023.6 |
| 20260509133642 | 65 | 79 | 1.7 | 6.1 | 0.00 | 0.00 | 0.00 | 88 | 1023.5 |
| 20260509133139 | 64 | 131 | 0.0 | 4.3 | 0.00 | 0.00 | 0.00 | 88 | 1023.8 |
| 20260509132637 | 64 | 141 | 1.7 | 1.7 | 0.00 | 0.00 | 0.00 | 88 | 1023.6 |
| 20260509132135 | 64 | 141 | 0.0 | 1.7 | 0.00 | 0.00 | 0.00 | 88 | 1023.8 |
| 20260509131631 | 64 | 105 | 1.7 | 1.7 | 0.00 | 0.00 | 0.00 | 87 | 1023.6 |
| 20260509131128 | 63 | 102 | 0.0 | 0.0 | 0.00 | 0.00 | 0.00 | 90 | 1023.9 |
| 20260509130624 | 62 | 102 | 0.0 | 0.0 | 0.00 | 0.00 | 0.00 | 92 | 1023.7 |
| 20260509130121 | 62 | 90 | 0.0 | 0.0 | 0.00 | 0.00 | 0.00 | 93 | 1023.6 |
| 20260509125617 | 62 | 90 | 0.9 | 1.7 | 0.00 | 0.00 | 0.00 | 92 | 1023.7 |
| 20260509125114 | 62 | 79 | 0.0 | 1.7 | 0.00 | 0.00 | 0.00 | 91 | 1023.6 |
| 20260509124610 | 62 | 90 | 0.9 | 4.3 | 0.00 | 0.00 | 0.00 | 91 | 1023.4 |
| 20260509124108 | 61 | 80 | 1.7 | 1.7 | 0.00 | 0.00 | 0.00 | 93 | 1023.3 |
| 20260509123606 | 60 | 89 | 0.9 | 1.7 | 0.00 | 0.00 | 0.00 | 95 | 1023.3 |
| 20260509123102 | 59 | 83 | 1.7 | 1.7 | 0.00 | 0.00 | 0.00 | 97 | 1023.2 |
| 20260509122558 | 59 | 96 | 0.0 | 1.7 | 0.00 | 0.00 | 0.00 | 98 | 1023.2 |
| 20260509122055 | 58 | 93 | 0.0 | 0.0 | 0.00 | 0.00 | 0.00 | 99 | 1023.3 |
| 20260509121552 | 57 | 98 | 0.0 | 0.0 | 0.00 | 0.00 | 0.00 | 99 | 1022.9 |
| 20260509121049 | 56 | 90 | 0.0 | 1.7 | 0.00 | 0.00 | 0.00 | 99 | 1022.9 |
| 20260509120547 | 56 | 41 | 1.7 | 4.3 | 0.00 | 0.00 | 0.00 | 99 | 1022.9 |
| 20260509120046 | 56 | 80 | 0.9 | 1.7 | 0.00 | 0.00 | 0.00 | 99 | 1022.8 |
| 20260509115542 | 55 | 90 | 0.9 | 1.7 | 0.00 | 0.00 | 0.00 | 99 | 1022.8 |
| 20260509115040 | 55 | 82 | 0.0 | 0.0 | 0.00 | 0.00 | 0.00 | 99 | 1022.7 |
| 20260509114538 | 55 | 82 | 0.0 | 1.7 | 0.00 | 0.00 | 0.00 | 99 | 1022.9 |
| 20260509114037 | 55 | 83 | 0.0 | 0.0 | 0.00 | 0.00 | 0.00 | 99 | 1022.9 |
| 20260509113534 | 55 | 83 | 0.0 | 0.0 | 0.00 | 0.00 | 0.00 | 99 | 1022.7 |
| 20260509113032 | 55 | 83 | 0.0 | 0.0 | 0.00 | 0.00 | 0.00 | 99 | 1022.6 |
| 20260509112528 | 55 | 83 | 0.0 | 1.7 | 0.00 | 0.00 | 0.00 | 99 | 1022.5 |
| 20260509112025 | 55 | 91 | 0.0 | 1.7 | 0.00 | 0.00 | 0.00 | 99 | 1022.5 |
| 20260509111522 | 55 | 90 | 0.9 | 1.7 | 0.00 | 0.00 | 0.00 | 99 | 1022.5 |
| 20260509111019 | 55 | 72 | 1.7 | 4.3 | 0.00 | 0.00 | 0.00 | 99 | 1022.5 |
| 20260509110516 | 55 | 79 | 1.7 | 1.7 | 0.00 | 0.00 | 0.00 | 99 | 1022.5 |
| 20260509110013 | 55 | 94 | 0.9 | 1.7 | 0.00 | 0.00 | 0.00 | 99 | 1022.7 |
| 20260509105511 | 55 | 115 | 0.0 | 1.7 | 0.00 | 0.00 | 0.00 | 99 | 1022.6 |
| 20260509105009 | 55 | 99 | 0.0 | 0.0 | 0.00 | 0.00 | 0.00 | 99 | 1022.8 |
| 20260509104505 | 56 | 99 | 0.0 | 1.7 | 0.00 | 0.00 | 0.00 | 99 | 1022.6 |
| 20260509104002 | 56 | 89 | 0.0 | 1.7 | 0.00 | 0.00 | 0.00 | 99 | 1022.5 |
| 20260509103500 | 56 | 125 | 0.0 | 0.0 | 0.00 | 0.00 | 0.00 | 99 | 1022.6 |
| 20260509102958 | 56 | 125 | 0.0 | 0.0 | 0.00 | 0.00 | 0.00 | 99 | 1022.5 |
| 20260509102455 | 56 | 131 | 0.0 | 0.0 | 0.00 | 0.00 | 0.00 | 99 | 1022.4 |
| 20260509101951 | 56 | 99 | 0.0 | 0.0 | 0.00 | 0.00 | 0.00 | 99 | 1022.2 |
| 20260509101448 | 56 | 99 | 0.0 | 0.0 | 0.00 | 0.00 | 0.00 | 98 | 1022.1 |
| 20260509100945 | 56 | 99 | 0.0 | 0.0 | 0.00 | 0.00 | 0.00 | 98 | 1021.9 |
| 20260509100442 | 56 | 99 | 0.0 | 0.0 | 0.00 | 0.00 | 0.00 | 98 | 1021.7 |
| 20260509095939 | 56 | 99 | 0.0 | 0.0 | 0.00 | 0.00 | 0.00 | 98 | 1021.4 |
| 20260509095436 | 57 | 99 | 0.0 | 0.0 | 0.00 | 0.00 | 0.00 | 98 | 1021.5 |
| 20260509094933 | 56 | 99 | 0.0 | 0.0 | 0.00 | 0.00 | 0.00 | 98 | 1021.4 |
| 20260509094429 | 57 | 100 | 0.0 | 0.0 | 0.00 | 0.00 | 0.00 | 98 | 1021.6 |
| 20260509093927 | 57 | 102 | 1.7 | 1.7 | 0.00 | 0.00 | 0.00 | 98 | 1021.4 |
| 20260509093424 | 57 | 97 | 1.7 | 1.7 | 0.00 | 0.00 | 0.00 | 98 | 1021.5 |
| 20260509092923 | 57 | 95 | 1.7 | 1.7 | 0.00 | 0.00 | 0.00 | 98 | 1021.5 |
| 20260509092420 | 57 | 95 | 0.0 | 1.7 | 0.00 | 0.00 | 0.00 | 98 | 1021.4 |
| 20260509091919 | 57 | 103 | 0.0 | 4.3 | 0.00 | 0.00 | 0.00 | 98 | 1021.3 |
| 20260509091415 | 57 | 94 | 1.7 | 1.7 | 0.00 | 0.00 | 0.00 | 98 | 1021.5 |
| 20260509090912 | 58 | 105 | 0.0 | 0.0 | 0.00 | 0.00 | 0.00 | 98 | 1021.5 |
| 20260509090409 | 58 | 93 | 0.9 | 1.7 | 0.00 | 0.00 | 0.00 | 98 | 1021.4 |
| 20260509085907 | 58 | 97 | 0.0 | 0.0 | 0.00 | 0.00 | 0.00 | 98 | 1021.6 |
| 20260509085404 | 58 | 98 | 0.9 | 1.7 | 0.00 | 0.00 | 0.00 | 97 | 1021.7 |
| 20260509084900 | 58 | 92 | 0.9 | 1.7 | 0.00 | 0.00 | 0.00 | 97 | 1021.7 |
| 20260509084357 | 57 | 95 | 0.9 | 1.7 | 0.00 | 0.00 | 0.00 | 97 | 1021.6 |
| 20260509083855 | 58 | 95 | 0.9 | 1.7 | 0.00 | 0.00 | 0.00 | 97 | 1021.5 |
| 20260509083351 | 57 | 110 | 0.0 | 0.0 | 0.00 | 0.00 | 0.00 | 97 | 1021.5 |
| 20260509082848 | 58 | 115 | 0.0 | 0.0 | 0.00 | 0.00 | 0.00 | 97 | 1021.5 |
| 20260509082345 | 58 | 122 | 0.0 | 0.0 | 0.00 | 0.00 | 0.00 | 97 | 1021.5 |
| 20260509081842 | 58 | 123 | 0.0 | 0.0 | 0.00 | 0.00 | 0.00 | 97 | 1021.3 |
| 20260509081339 | 58 | 95 | 0.0 | 0.0 | 0.00 | 0.00 | 0.00 | 97 | 1021.2 |
| 20260509080837 | 58 | 95 | 0.0 | 0.0 | 0.00 | 0.00 | 0.00 | 97 | 1021.4 |
| 20260509080335 | 58 | 95 | 0.0 | 0.0 | 0.00 | 0.00 | 0.00 | 97 | 1021.2 |
| 20260509075833 | 58 | 95 | 0.0 | 0.0 | 0.00 | 0.00 | 0.00 | 97 | 1021.4 |
| 20260509075329 | 58 | 102 | 0.0 | 0.0 | 0.00 | 0.00 | 0.00 | 97 | 1021.6 |
| 20260509074827 | 58 | 133 | 0.0 | 0.0 | 0.00 | 0.00 | 0.00 | 97 | 1021.7 |
| 20260509074324 | 58 | 147 | 0.0 | 0.0 | 0.00 | 0.00 | 0.00 | 97 | 1022.0 |
| 20260509073820 | 58 | 133 | 0.0 | 1.7 | 0.00 | 0.00 | 0.00 | 97 | 1022.0 |
| 20260509073317 | 58 | 156 | 0.9 | 1.7 | 0.00 | 0.00 | 0.00 | 97 | 1022.1 |
| 20260509072814 | 58 | 144 | 0.0 | 0.0 | 0.00 | 0.00 | 0.00 | 97 | 1022.4 |
| 20260509072310 | 58 | 144 | 0.0 | 0.0 | 0.00 | 0.00 | 0.00 | 97 | 1022.2 |
| 20260509071807 | 58 | 144 | 0.0 | 0.0 | 0.00 | 0.00 | 0.00 | 97 | 1022.2 |
| 20260509071304 | 58 | 144 | 0.0 | 0.0 | 0.00 | 0.00 | 0.00 | 97 | 1022.3 |
| 20260509070801 | 58 | 143 | 0.0 | 0.0 | 0.00 | 0.00 | 0.00 | 97 | 1022.6 |
| 20260509070257 | 58 | 143 | 0.0 | 0.0 | 0.00 | 0.00 | 0.00 | 97 | 1022.5 |
| 20260509065754 | 57 | 143 | 0.0 | 0.0 | 0.00 | 0.00 | 0.00 | 97 | 1022.5 |
| 20260509065250 | 57 | 139 | 0.0 | 0.0 | 0.00 | 0.00 | 0.00 | 97 | 1022.7 |
| 20260509064746 | 57 | 139 | 0.0 | 0.0 | 0.00 | 0.00 | 0.00 | 97 | 1022.6 |
| 20260509064244 | 58 | 115 | 0.0 | 0.0 | 0.00 | 0.00 | 0.00 | 96 | 1022.7 |
| 20260509063741 | 58 | 115 | 0.0 | 0.0 | 0.00 | 0.00 | 0.00 | 96 | 1022.9 |
| 20260509063237 | 58 | 115 | 0.0 | 0.0 | 0.00 | 0.00 | 0.00 | 96 | 1023.1 |
| 20260509062735 | 58 | 115 | 0.0 | 0.0 | 0.00 | 0.00 | 0.00 | 96 | 1023.0 |
| 20260509062232 | 58 | 115 | 0.0 | 0.0 | 0.00 | 0.00 | 0.00 | 96 | 1023.2 |
| 20260509061729 | 58 | 116 | 0.0 | 0.0 | 0.00 | 0.00 | 0.00 | 96 | 1023.1 |
| 20260509061227 | 58 | 116 | 0.0 | 0.0 | 0.00 | 0.00 | 0.00 | 95 | 1023.7 |
| 20260509060724 | 58 | 116 | 0.0 | 0.0 | 0.00 | 0.00 | 0.00 | 95 | 1023.7 |
| 20260509060220 | 59 | 101 | 0.0 | 0.0 | 0.00 | 0.00 | 0.00 | 95 | 1023.7 |
| 20260509055716 | 59 | 94 | 0.9 | 1.7 | 0.00 | 0.00 | 0.00 | 95 | 1023.5 |
| 20260509055212 | 59 | 119 | 0.0 | 0.0 | 0.00 | 0.00 | 0.00 | 94 | 1023.5 |
| 20260509054709 | 59 | 119 | 0.0 | 1.7 | 0.00 | 0.00 | 0.00 | 94 | 1023.3 |
| 20260509054206 | 60 | 93 | 0.0 | 0.0 | 0.00 | 0.00 | 0.00 | 93 | 1023.5 |
| 20260509053704 | 60 | 90 | 0.0 | 0.0 | 0.00 | 0.00 | 0.00 | 93 | 1023.4 |
| 20260509053201 | 60 | 93 | 0.9 | 4.3 | 0.00 | 0.00 | 0.00 | 93 | 1023.6 |
| 20260509052659 | 60 | 73 | 2.6 | 4.3 | 0.00 | 0.00 | 0.00 | 92 | 1023.5 |
| 20260509052156 | 60 | 85 | 0.0 | 0.0 | 0.00 | 0.00 | 0.00 | 93 | 1023.6 |